Location: Hilton Head Island
(32.2163°N, 80.7526°W)
Time: 19:12:11
(UTC-04:00)

A-11 Canister half - Pass Details

Date: 20 February 2026
Orbit: 1525 x 1683 km, 47.3° (Epoch: 10 March)

Event Time Altitude Azimuth Distance (km) Brightness Sun altitude
Rises 21:26:40 0° 307° (NW) 4,675 12.3 -41.3°
Reaches altitude 10° 21:29:48 10° 312° (NW) 3,691 11.5 -41.9°
Enters shadow 21:36:06 44° 339° (NNW) 2,025 9.6 -43.2°
